Theta_e
339 340 341 342 344 344 344 345 348 348 349 350 350 349 351 351 353 354 355 358 363 365 367 368 367 367 366 366 367 367 366 366 364 363 361 360 361 360 357 354 354 355 353 353 356 355 360 361 360 360 361 360 361 361 365 366 364 357 360 363 362 360 359
336 339 340 342 343 344 346 347 348 347 349 349 351 353 352 351 353 354 356 359 362 366 368 368 368 366 366 366 366 368 368 366 365 364 362 362 362 362 358 357 354 355 356 355 357 361 361 359 360 359 359 361 360 362 363 366 365 362 359 360 358 357 357
337 339 341 342 342 344 346 347 349 349 351 349 350 352 352 353 353 356 357 357 362 366 369 368 368 366 366 367 366 366 366 365 365 363 360 358 360 359 361 360 357 353 353 354 356 356 360 359 362 361 360 360 358 362 364 366 365 362 363 362 359 356 357
338 338 340 343 345 347 347 348 350 350 350 350 351 352 353 355 355 358 359 361 363 365 367 368 368 366 364 365 364 365 365 365 364 361 360 359 357 359 360 359 359 357 353 352 354 356 356 358 358 361 362 360 359 359 361 363 363 365 361 362 363 359 362
340 340 341 343 344 346 347 348 350 351 349 349 351 353 353 355 356 359 361 363 366 366 368 368 368 367 366 366 363 362 363 363 363 362 361 361 361 360 359 357 357 356 355 353 355 355 359 360 357 359 360 363 360 362 362 364 364 365 365 362 360 359 358
342 342 343 343 343 345 347 349 350 349 350 349 349 350 352 355 358 361 364 365 367 369 370 368 367 367 365 366 365 361 363 363 365 365 361 362 361 358 358 357 355 355 355 354 353 354 356 356 357 356 357 356 358 358 363 363 364 363 363 362 361 360 356
343 344 344 344 343 346 347 348 347 348 350 350 351 352 354 357 358 358 363 364 366 365 366 366 366 366 366 366 366 365 362 359 362 361 361 360 359 357 358 358 359 356 356 357 355 356 354 355 356 357 356 355 356 359 364 366 364 361 363 362 361 361 361
345 346 346 345 344 345 346 348 347 346 348 350 354 352 353 353 357 357 361 363 365 366 367 366 363 365 366 367 367 365 364 362 362 363 361 358 359 357 356 357 358 358 359 357 358 358 356 356 355 356 356 355 357 360 363 367 368 364 362 361 361 360 359
346 348 347 345 345 346 347 349 348 347 351 354 353 352 353 354 356 357 360 362 364 366 365 365 364 366 368 367 367 365 364 363 363 364 363 358 357 355 355 357 359 360 358 358 359 361 360 358 358 360 362 362 363 365 365 366 366 365 363 362 362 360 357
346 347 348 346 347 347 349 349 350 352 352 353 354 355 353 353 357 356 359 362 363 364 365 364 367 367 368 366 364 364 364 364 364 364 364 358 356 359 359 359 359 360 360 361 363 362 367 364 361 364 367 365 365 365 365 365 365 364 365 363 361 359 358
347 348 349 346 346 348 350 349 349 353 354 356 356 357 356 354 356 357 360 363 361 361 362 365 367 366 365 363 363 364 363 363 364 364 364 359 357 361 363 361 360 364 365 365 365 367 366 364 364 364 366 364 364 364 365 364 365 365 364 362 361 360 357
347 347 349 350 348 349 349 350 352 356 357 358 357 356 356 356 356 355 357 363 362 360 360 363 363 364 362 362 362 362 361 361 361 362 366 365 362 364 366 366 365 364 365 365 366 367 366 365 365 362 362 365 364 364 365 367 366 365 363 362 362 360 358
345 350 348 350 350 350 350 351 352 355 356 356 357 356 356 360 358 357 359 361 363 363 361 361 361 359 355 353 359 358 358 359 361 363 366 368 367 368 369 369 369 367 366 367 367 368 367 365 365 365 365 366 366 365 365 365 364 364 365 363 363 361 358
343 347 350 349 350 351 350 352 352 353 355 356 356 357 358 357 358 359 360 359 360 359 360 359 359 356 353 357 358 356 353 355 359 363 365 365 366 367 368 367 367 368 368 368 367 366 365 364 365 365 366 365 363 362 363 362 362 362 363 362 361 359 358
339 344 345 348 350 350 351 351 353 353 354 357 357 358 360 360 360 361 363 363 360 359 359 360 358 355 354 358 358 359 360 359 360 364 365 365 363 364 365 364 365 366 367 366 366 364 365 365 365 363 362 361 361 361 361 359 359 360 359 359 360 359 357
336 341 345 348 350 353 353 352 352 353 356 358 358 359 360 360 361 361 359 358 360 360 361 360 360 359 360 358 358 358 357 359 361 364 365 365 364 364 364 366 365 364 365 365 364 365 364 365 363 362 361 360 359 360 359 358 359 357 354 354 360 360 360
335 340 346 348 350 352 353 354 354 352 351 353 355 356 357 360 362 362 361 361 360 360 361 361 359 359 359 358 359 355 354 357 360 361 362 362 362 363 364 364 364 363 362 362 362 363 363 361 361 360 360 358 357 357 357 357 358 355 347 348 351 358 360
338 340 343 348 349 350 352 353 355 354 352 352 354 355 357 358 360 361 361 363 361 361 362 359 359 358 360 362 362 361 358 358 359 360 361 361 360 362 363 363 362 361 361 361 361 362 361 358 358 358 358 357 358 358 358 359 352 341 344 344 345 349 357
339 341 341 348 348 349 349 351 352 354 355 356 356 356 358 360 360 360 361 362 363 363 361 360 359 359 358 360 362 362 360 360 360 361 361 360 361 361 361 361 360 359 360 360 360 359 358 358 357 357 357 357 356 355 356 356 342 339 341 340 340 342 352
339 341 343 349 349 350 350 351 351 353 353 354 356 356 358 360 359 359 362 364 365 363 361 360 359 360 359 359 360 362 362 362 361 360 360 360 361 361 360 359 358 359 360 359 359 358 357 356 356 357 357 356 356 357 355 356 345 337 338 338 337 339 347
339 341 343 347 351 352 352 351 352 352 352 352 352 354 357 359 361 363 364 363 362 361 360 359 359 358 359 359 359 359 360 362 361 359 360 360 359 358 359 359 358 358 358 357 356 356 356 355 355 356 356 356 355 354 354 354 336 336 337 335 334 337 348
338 341 343 346 349 353 353 354 353 353 353 354 353 353 354 355 357 358 359 362 361 359 358 358 358 358 358 358 358 359 361 361 360 360 359 358 358 357 356 356 357 356 356 356 357 357 357 357 358 357 357 356 355 354 354 348 329 332 332 331 333 340 355
338 341 344 346 350 352 355 356 354 354 353 353 354 354 354 355 354 354 354 355 355 357 357 358 357 358 359 358 359 359 361 362 361 360 358 358 357 356 356 355 356 356 357 357 356 355 355 355 357 358 356 356 355 355 354 349 331 324 326 329 331 342 352
340 343 345 346 351 351 353 353 355 354 352 351 353 354 355 356 356 356 355 356 356 357 356 357 355 358 358 358 357 358 361 362 361 359 358 355 355 355 356 356 357 358 358 355 354 354 355 356 356 357 357 357 357 358 354 348 335 324 323 325 329 346 350
340 343 346 346 345 350 351 352 353 354 356 353 351 353 354 355 355 354 354 354 355 356 355 355 357 357 358 359 360 360 360 358 358 358 357 356 356 357 356 357 356 357 358 357 357 356 356 354 355 357 359 358 358 354 353 349 338 320 321 323 327 343 352
339 342 344 345 347 350 352 355 354 353 353 352 353 354 355 355 354 353 353 354 355 354 355 356 357 360 361 362 361 360 359 360 359 358 357 356 357 358 357 357 358 357 357 357 357 355 356 355 357 357 357 360 359 354 354 349 345 333 317 319 323 329 355
341 343 347 346 349 348 350 351 351 350 350 353 353 354 354 354 353 352 354 355 355 355 356 358 360 360 359 359 358 358 358 360 359 358 359 358 357 358 358 358 357 357 357 356 356 356 357 356 356 355 354 355 355 354 353 351 347 335 318 317 318 321 334
341 345 346 351 349 349 349 350 351 352 351 352 352 351 349 347 349 348 352 353 352 355 357 359 359 358 359 359 358 358 358 359 359 358 357 358 358 357 357 359 359 358 357 356 359 358 355 355 353 352 352 353 354 354 351 348 344 344 324 318 316 318 325
339 341 344 345 348 349 348 350 351 350 350 349 349 347 344 343 341 345 345 349 353 355 356 357 357 358 358 358 357 357 357 358 358 357 357 357 358 358 357 358 358 359 359 358 356 353 352 351 351 351 351 350 352 351 350 348 343 337 339 321 315 314 319
340 342 342 344 347 348 352 351 350 351 350 349 348 345 342 340 339 338 340 349 355 355 355 356 356 357 357 356 356 356 357 357 358 358 359 357 358 357 357 359 359 358 355 354 352 351 350 350 350 349 349 349 349 349 349 348 344 336 334 331 317 314 313
339 340 341 343 349 352 353 353 352 349 346 345 345 343 340 340 340 341 340 347 353 355 357 357 356 356 355 355 356 356 356 356 357 357 357 357 356 356 355 356 355 352 354 354 352 351 349 349 349 349 349 348 347 347 346 346 345 344 337 331 326 318 316
339 341 343 345 348 350 350 352 352 348 344 344 347 344 343 344 344 340 343 351 352 353 357 355 354 355 355 355 354 353 354 354 354 355 355 355 355 354 353 352 350 349 352 350 349 350 349 349 350 349 351 351 351 347 345 344 344 345 345 341 339 332 321
338 339 341 344 346 347 348 351 350 348 345 342 345 350 351 350 347 348 351 353 353 353 354 355 354 353 354 353 352 353 354 353 352 351 352 352 350 349 349 349 348 349 349 348 347 347 348 349 348 347 347 348 348 345 345 343 341 342 342 343 343 342 342
337 338 341 343 346 347 348 350 351 349 347 344 343 348 351 352 351 352 352 351 352 354 355 354 353 351 352 351 353 353 353 351 351 349 345 341 341 342 345 348 349 347 344 341 342 347 347 347 346 345 346 346 346 344 341 339 338 335 336 336 338 341 342
338 338 340 343 346 347 347 349 350 349 346 345 344 346 350 350 350 351 351 351 353 355 354 352 351 352 352 353 354 354 353 350 348 346 343 339 332 324 320 320 327 341 338 328 325 327 333 344 343 344 346 347 345 345 340 339 339 333 315 323 308 322 340
338 338 339 343 346 348 349 349 349 348 346 345 344 347 349 350 351 352 351 353 355 355 354 353 352 354 353 353 352 352 349 347 346 346 344 340 332 327 322 315 305 309 325 326 316 309 303 312 331 334 341 337 330 329 336 335 329 308 301 299 300 302 304
339 338 339 341 344 346 346 346 345 345 344 345 345 348 349 350 353 354 353 355 355 355 355 354 353 354 353 353 350 346 345 344 345 346 345 342 337 334 330 326 318 301 302 309 310 304 300 299 301 305 314 334 331 321 308 308 303 299 299 300 298 298 298
340 341 340 341 344 345 346 345 343 343 344 345 347 347 349 350 353 356 355 355 356 358 356 354 354 354 352 350 347 348 349 346 347 346 344 343 342 339 335 333 329 322 304 301 304 303 300 299 299 300 303 307 317 329 324 308 301 300 300 300 299 298 298
Wind_Speed
10 13 15 15 15 16 15 17 18 16 15 13 15 16 16 15 14 13 13 14 15 15 14 13 13 12 13 12 12 11 10 9 9 9 8 8 7 6 7 7 8 7 6 5 6 6 5 4 4 5 4 5 5 5 6 6 6 6 6 6 6 7 8
8 10 12 14 15 16 17 17 18 17 17 16 15 17 14 15 14 14 13 14 15 14 14 14 14 13 13 13 11 11 11 11 9 7 7 6 6 6 6 6 6 6 6 6 4 4 4 6 6 6 6 6 6 5 6 6 7 7 6 6 7 7 7
9 9 10 12 14 15 16 15 15 14 15 16 16 14 14 14 14 14 13 13 13 13 13 14 15 14 13 12 11 12 12 11 10 10 10 8 9 9 8 6 6 6 7 8 7 7 6 7 6 6 6 5 5 5 6 5 6 7 6 5 5 6 6
4 6 9 10 12 13 15 15 15 14 14 15 14 15 15 14 14 14 13 13 14 14 15 14 14 13 12 12 12 11 12 12 11 10 10 9 8 8 7 7 6 6 7 8 8 7 7 6 6 6 6 6 5 5 5 6 3 3 4 2 0 3 3
4 5 6 9 11 12 13 13 15 14 15 15 13 13 14 15 14 13 13 13 14 16 15 15 12 11 10 10 9 9 10 11 11 9 8 7 7 7 7 7 7 7 7 7 8 7 6 6 7 7 6 5 6 6 6 5 5 5 3 3 3 3 4
5 5 5 7 9 11 13 14 14 14 13 14 13 13 12 14 12 13 12 12 12 11 10 11 11 10 10 10 9 9 9 9 9 9 8 7 7 8 8 8 8 8 8 8 7 7 7 8 8 8 7 7 7 7 5 6 5 5 5 4 4 4 5
5 1 4 5 7 8 11 13 14 14 13 11 10 9 8 10 12 11 10 10 11 12 12 12 11 10 9 9 9 9 10 9 9 10 8 9 9 8 8 7 7 8 8 7 7 7 8 9 9 8 8 8 8 5 6 6 5 4 5 5 5 5 6
8 5 1 3 6 8 10 11 13 13 13 11 10 10 8 8 8 9 10 9 10 11 11 12 12 11 11 10 10 11 10 9 8 8 8 9 9 9 9 8 8 8 7 8 7 7 9 9 8 8 8 9 8 8 6 6 6 6 6 6 6 7 6
11 8 6 0 4 5 7 9 10 11 13 12 11 9 7 6 7 8 8 9 10 11 12 11 10 9 9 9 9 10 9 9 8 8 9 9 8 9 9 9 9 8 9 8 7 8 8 8 7 6 6 5 4 4 5 6 5 5 5 6 6 7 7
12 11 6 3 1 2 4 6 8 9 11 11 10 10 9 7 6 8 7 7 6 6 7 8 7 8 9 9 9 10 9 9 8 8 8 9 8 9 8 8 8 8 8 7 6 5 3 3 4 4 4 5 6 6 6 5 5 5 5 6 6 7 7
9 9 7 2 2 3 4 5 7 7 9 9 9 9 8 7 6 5 6 6 8 7 8 6 5 6 7 6 6 7 8 8 8 8 9 9 7 8 7 7 6 4 5 5 5 4 5 5 5 5 6 6 7 7 7 6 6 6 6 6 6 7 7
11 9 7 4 1 4 6 6 6 7 8 8 8 9 8 8 9 9 9 8 9 9 7 5 4 4 4 5 5 1 3 5 6 7 8 6 5 5 6 5 5 4 5 5 5 5 5 6 5 5 6 6 6 7 7 6 6 5 5 6 6 6 7
13 9 5 5 1 3 5 6 8 8 8 8 9 10 9 9 9 8 5 7 4 5 6 5 3 5 6 4 6 2 5 4 4 3 3 4 4 4 4 4 5 6 6 5 5 5 5 5 5 5 5 5 6 6 6 6 6 5 6 6 6 7 7
16 11 6 2 2 3 6 6 7 7 8 8 9 9 9 9 7 4 3 6 8 10 11 9 9 11 8 6 6 7 8 6 4 4 5 4 5 5 4 5 5 5 4 3 4 4 5 5 5 5 5 5 6 5 5 5 5 6 6 6 6 6 6
15 12 9 5 2 2 3 5 6 7 8 8 9 9 8 7 6 7 7 7 9 9 8 8 11 13 13 11 9 8 8 7 5 4 4 5 6 6 7 7 6 5 4 4 4 4 5 6 5 6 5 4 5 5 5 5 5 4 4 4 4 4 5
15 14 8 6 5 2 0 2 4 5 6 7 9 9 8 8 10 11 10 9 8 8 9 11 12 13 12 11 11 10 9 8 6 5 5 6 6 6 7 6 5 5 5 5 5 5 5 5 5 4 4 5 4 4 4 4 3 3 2 3 3 3 3
13 13 8 5 4 2 1 0 1 4 6 7 8 8 9 9 9 9 9 8 8 10 10 10 11 11 11 11 10 9 7 6 6 6 6 6 5 5 6 5 5 5 6 6 5 5 4 4 4 4 4 4 4 4 4 3 2 8 6 4 6 5 4
10 9 8 5 3 3 2 1 0 1 3 5 7 8 9 9 9 9 9 8 10 11 11 11 11 11 11 10 9 9 9 8 8 8 8 6 6 5 5 6 6 6 6 5 5 4 4 4 3 3 2 3 4 4 3 2 8 9 8 5 3 4 3
8 8 8 6 3 2 2 2 2 1 1 1 3 6 7 8 8 8 8 8 9 10 11 12 11 10 10 10 10 9 7 8 9 10 9 8 7 6 7 7 6 6 6 6 5 5 4 4 4 4 4 4 4 3 2 4 9 8 5 4 2 2 6
9 9 8 6 4 3 1 1 1 1 1 0 1 3 5 6 7 6 7 8 9 11 11 12 11 11 11 10 10 9 8 9 10 10 9 8 7 7 8 7 7 6 6 6 6 5 5 5 5 5 4 3 3 3 3 5 7 6 4 2 1 4 6
10 11 11 9 6 2 1 1 1 0 1 1 2 3 4 5 6 7 7 9 10 10 11 11 11 12 11 11 10 9 8 9 10 8 7 7 8 7 7 7 7 7 7 6 6 6 6 6 5 5 5 4 4 4 3 5 6 4 3 2 3 4 8
13 13 12 10 8 5 2 1 1 1 2 2 3 4 5 6 6 7 7 8 9 10 10 11 11 11 10 10 9 9 8 8 9 8 8 8 8 9 8 8 8 8 7 6 6 6 6 5 5 5 5 4 4 4 5 6 8 6 4 1 3 6 3
14 14 13 11 6 5 3 3 1 2 2 2 3 4 4 5 7 7 8 8 9 10 10 11 10 10 9 9 8 8 7 8 8 7 8 9 9 9 9 9 9 8 7 7 7 7 6 6 5 5 5 5 4 5 7 7 6 6 5 5 7 7 1
14 14 12 11 6 3 2 2 2 2 1 3 4 4 4 5 6 7 8 8 9 9 10 10 10 9 9 9 9 8 7 6 7 8 9 9 9 10 10 9 8 8 7 8 7 6 6 6 5 5 5 5 4 5 8 6 6 7 6 6 7 9 2
15 14 12 10 7 4 3 2 3 4 4 4 5 4 3 4 6 7 8 9 9 9 10 10 9 9 9 9 9 8 7 7 8 9 9 10 10 10 10 9 8 8 7 7 6 6 6 6 6 5 4 5 6 10 9 7 5 6 6 6 7 8 2
17 17 12 8 5 4 4 2 1 2 5 8 7 4 2 2 4 5 7 8 9 10 9 9 9 8 7 8 9 8 9 9 10 9 9 10 9 9 8 8 8 8 7 6 6 6 6 6 6 6 5 6 7 7 8 6 5 6 7 7 7 9 5
15 16 12 7 5 5 2 2 4 7 9 9 6 5 3 3 2 5 6 7 8 10 10 9 8 8 8 8 9 9 9 8 9 10 9 9 8 8 8 7 7 7 6 6 6 6 6 6 6 7 7 6 7 7 7 5 5 5 6 7 8 10 10
16 15 11 4 3 1 2 4 7 10 11 10 9 10 8 7 3 1 1 5 7 8 8 8 9 9 9 10 10 10 10 10 9 9 8 8 8 8 7 7 7 7 6 6 6 6 6 6 6 6 6 6 7 7 7 6 6 5 7 7 8 8 11
16 15 12 8 1 2 1 5 7 8 9 10 12 11 11 10 9 7 1 3 6 7 7 8 9 10 10 10 10 9 9 9 10 8 7 7 8 8 8 7 7 7 6 6 7 7 7 7 6 6 6 6 6 6 6 6 6 5 5 6 7 9 9
14 12 13 9 2 1 3 5 5 4 4 4 7 10 12 13 13 5 5 2 3 5 7 8 9 10 10 10 10 9 9 9 9 8 8 9 8 7 8 7 7 7 7 7 7 6 6 6 6 6 6 7 6 5 5 5 5 6 6 5 6 7 7
13 12 8 11 5 2 2 3 5 5 4 5 5 6 6 8 13 12 9 5 4 4 6 8 9 9 9 9 9 9 9 8 8 8 9 8 8 7 7 8 8 7 7 7 6 6 6 6 6 5 5 5 6 6 5 4 4 4 5 5 5 5 5
12 13 10 10 5 4 1 4 4 5 5 3 5 6 6 8 10 11 7 7 9 8 9 9 9 9 9 9 9 9 9 9 9 8 8 8 7 8 7 7 6 6 5 6 6 6 6 5 6 5 5 4 3 5 5 4 4 3 3 3 2 5 5
11 12 13 11 6 6 7 7 5 5 5 5 0 3 9 11 11 10 9 9 10 10 10 10 9 9 8 8 8 9 9 9 8 8 8 8 7 6 6 5 5 6 5 5 6 6 5 5 4 3 3 3 4 5 5 5 4 3 3 3 2 2 3
10 13 12 9 8 10 10 8 4 2 4 4 3 4 6 10 11 11 10 10 9 9 10 9 9 9 9 10 9 8 9 9 11 9 7 7 7 7 6 4 4 4 5 7 6 3 4 3 3 2 3 4 4 5 5 5 4 3 4 4 4 3 3
10 12 14 12 9 9 9 7 5 3 3 2 3 3 5 9 10 11 10 9 9 9 9 9 9 9 10 9 9 8 8 9 9 8 8 9 10 10 10 9 9 7 8 9 7 6 6 3 4 4 3 5 5 4 4 4 5 4 4 3 4 4 4
9 11 13 12 9 8 7 6 6 4 4 4 4 5 6 8 10 9 9 9 9 9 9 9 8 8 9 8 9 9 9 8 8 9 9 9 9 9 11 17 15 12 7 6 10 12 11 12 8 7 6 8 7 5 3 6 5 4 1 3 3 2 4
10 10 11 12 10 8 6 5 4 5 5 4 5 6 7 7 8 10 10 9 9 10 9 8 7 7 8 8 8 8 8 8 9 9 8 9 9 9 9 9 12 16 15 13 12 13 16 16 16 17 15 8 8 9 13 11 7 5 3 5 6 7 6
9 10 9 10 9 7 6 4 5 6 6 5 5 4 6 6 7 9 10 10 9 9 9 7 4 5 8 8 9 8 8 8 9 9 9 8 8 9 8 9 10 11 15 14 14 14 15 14 15 15 15 15 10 8 7 7 7 6 6 7 8 7 7
Wind_Direction
207 204 205 200 195 195 182 189 188 189 190 190 187 198 192 191 192 189 190 188 189 188 183 180 183 186 193 198 202 203 206 207 207 210 210 215 219 222 213 215 209 220 236 220 209 216 218 220 240 245 237 213 223 212 215 220 227 235 233 231 240 249 257
196 201 205 203 195 193 190 186 187 188 181 180 198 194 191 190 187 190 192 190 189 184 178 179 182 188 193 198 199 201 204 206 209 211 214 208 211 217 229 218 227 205 219 244 237 220 218 214 220 230 234 219 221 221 211 214 224 235 242 226 232 240 242
189 188 203 206 197 191 187 185 187 187 183 186 188 188 190 189 187 189 189 188 183 181 178 183 186 190 193 195 198 200 203 204 201 203 210 210 203 215 212 224 222 224 217 215 226 232 218 224 215 228 230 239 244 209 209 224 228 235 239 251 250 246 254
180 189 199 203 201 188 187 183 183 183 185 188 189 189 185 184 188 184 188 182 177 178 182 185 187 190 192 194 199 200 203 205 209 208 212 215 216 210 211 204 215 228 220 226 223 220 236 231 222 218 218 241 235 243 230 223 210 106 108 123 252 297 290
133 179 190 200 198 182 185 180 182 183 190 189 187 189 187 183 185 181 185 182 177 179 183 183 183 188 193 193 199 201 206 206 206 211 211 213 215 222 217 216 210 215 226 231 226 227 227 240 240 231 223 214 233 214 220 187 178 166 147 155 189 219 251
128 168 181 192 201 189 183 181 184 185 187 186 183 185 185 179 179 180 181 179 179 176 172 173 177 180 188 191 198 199 201 203 204 204 206 200 207 211 216 216 218 222 224 222 229 226 222 233 240 247 245 230 217 227 181 186 182 176 174 191 219 228 240
21 75 168 191 202 196 188 183 186 179 179 177 167 165 175 177 189 189 183 181 174 171 170 174 172 173 185 188 194 200 200 200 196 199 197 201 203 217 219 221 223 225 227 225 225 223 224 225 234 238 239 246 259 235 189 194 198 193 185 202 220 237 246
17 12 21 191 212 198 198 187 188 179 176 167 155 154 151 180 195 200 187 181 172 167 169 162 167 186 185 187 188 193 195 201 195 196 200 202 199 214 219 219 218 222 226 227 220 229 230 234 236 231 235 244 236 236 213 199 187 192 194 208 213 223 232
10 8 1 311 210 196 200 187 187 172 166 160 159 148 151 180 195 205 193 184 178 177 181 186 185 184 179 180 182 188 190 195 197 189 195 206 203 215 213 214 220 216 219 218 225 216 230 237 239 247 260 259 245 225 227 222 210 204 205 213 222 233 238
8 358 16 341 141 185 194 181 185 162 167 166 165 167 167 169 188 202 203 192 179 192 197 183 178 176 173 175 178 180 183 189 191 190 191 205 211 216 218 220 215 219 222 227 228 233 228 244 253 255 234 231 239 234 228 223 217 212 208 214 220 229 235
7 2 356 15 131 173 175 186 170 160 169 172 173 173 164 162 160 201 213 186 146 171 205 188 177 170 167 174 175 177 183 188 193 194 198 208 213 216 217 223 232 221 227 228 236 224 233 242 246 239 234 240 239 240 239 232 220 214 214 218 222 228 239
8 3 357 351 167 191 182 182 171 174 178 175 175 179 177 165 178 191 209 207 181 186 178 171 169 162 122 127 120 159 214 212 211 205 203 213 219 212 213 219 222 220 227 227 230 232 234 238 246 247 245 244 243 243 244 241 233 226 227 227 227 226 236
0 350 345 341 284 188 183 185 191 188 188 185 177 179 185 183 188 190 160 153 174 107 97 92 77 70 59 64 76 73 262 237 217 227 203 199 213 204 193 190 202 219 223 218 229 234 237 243 244 242 249 245 251 253 251 246 243 234 223 221 222 226 230
357 345 340 290 275 196 185 189 191 191 192 195 189 185 188 191 192 167 128 131 145 155 159 165 150 110 111 150 155 212 239 246 239 197 187 194 205 201 203 209 214 216 212 205 221 228 244 237 238 247 246 246 246 252 257 252 248 243 234 224 225 229 232
353 341 332 325 276 213 181 172 179 182 187 191 194 192 185 175 163 154 148 157 160 155 156 152 139 139 157 167 164 187 210 220 225 208 189 195 196 205 205 206 201 198 194 207 214 228 225 234 240 244 242 244 261 255 246 248 245 238 235 229 223 234 240
344 321 324 322 311 313 208 171 175 180 174 185 187 181 176 171 174 177 181 185 164 139 143 156 149 151 158 162 178 196 198 186 195 192 195 203 203 205 203 201 196 194 198 202 210 221 229 229 233 238 245 244 234 242 242 239 246 231 252 318 305 242 253
314 303 322 320 305 301 321 181 206 190 197 197 194 184 182 184 182 185 183 174 148 143 152 162 166 165 167 175 188 187 184 175 181 200 210 209 212 207 200 195 193 203 201 204 202 209 214 219 219 221 232 240 234 224 227 224 87 81 65 33 336 293 248
277 315 328 319 316 316 339 4 36 227 218 207 200 192 188 185 185 183 187 164 149 149 156 162 168 170 173 178 190 186 178 170 176 194 200 204 199 192 184 185 190 190 193 196 194 196 182 188 218 221 229 219 217 221 201 141 83 74 76 69 33 332 290
325 325 333 326 323 335 6 1 351 331 296 252 202 198 192 182 178 183 176 160 149 149 160 166 175 174 184 189 195 194 178 174 193 197 196 195 194 184 179 178 185 193 191 179 174 162 177 178 171 164 177 186 190 171 149 110 89 88 84 70 35 326 284
334 329 328 331 333 342 17 350 326 329 333 42 213 196 190 184 181 175 169 157 156 165 167 171 179 189 189 194 200 198 188 190 197 197 193 188 186 183 175 178 183 175 168 156 157 167 157 152 155 142 150 145 138 126 133 102 92 105 108 101 352 288 279
338 339 333 332 339 333 352 4 354 12 154 137 151 156 167 173 165 158 159 165 165 168 170 180 183 192 194 192 193 191 190 191 192 186 175 174 179 172 174 171 165 167 157 157 163 160 151 151 149 142 147 147 143 145 130 94 88 72 52 47 298 272 263
340 339 332 330 327 321 303 7 26 106 107 110 143 148 161 165 167 171 162 155 157 166 175 180 189 192 191 190 187 189 188 188 186 173 172 171 167 166 166 164 164 156 150 154 151 146 144 142 143 144 141 141 143 148 112 77 44 49 43 338 266 271 260
338 332 329 322 322 307 326 324 22 81 107 129 127 137 140 148 162 163 160 164 165 169 172 177 185 181 176 176 174 184 186 181 174 156 160 157 158 163 161 157 152 148 153 149 148 147 145 147 148 146 149 152 162 143 107 84 47 39 32 3 332 295 85
338 333 329 323 321 290 284 323 48 70 103 108 107 100 117 148 144 148 154 154 158 164 169 176 180 174 170 168 169 180 174 161 152 155 150 156 159 157 154 150 150 147 153 148 149 149 145 142 144 149 155 162 137 111 104 94 56 40 25 353 330 311 78
335 337 322 323 322 346 356 4 353 78 76 76 67 72 103 136 147 150 150 152 155 160 165 175 173 171 169 163 166 168 152 152 160 156 157 155 154 151 149 149 146 142 148 145 147 140 142 148 143 149 149 126 111 107 107 102 79 49 16 351 330 309 119
334 331 322 311 328 25 37 29 25 75 63 56 49 51 73 145 141 132 147 150 152 158 160 164 167 168 160 145 149 153 159 158 158 152 149 148 147 146 142 140 141 145 147 149 147 144 143 146 141 142 128 127 129 119 110 110 95 54 11 358 339 337 332
334 327 319 316 2 8 50 79 42 64 69 70 57 54 30 11 85 142 147 154 153 148 148 150 153 148 137 150 152 151 147 147 150 149 147 145 144 138 138 142 141 144 145 143 138 131 134 138 140 137 129 125 120 118 112 107 111 71 26 20 5 360 344
336 339 324 341 46 333 71 102 99 90 88 85 69 54 32 357 347 27 175 143 129 124 129 141 145 148 149 151 148 144 145 146 144 144 142 140 138 142 141 140 140 140 137 130 123 130 131 130 130 126 124 126 115 103 104 88 86 102 61 30 23 15 12
342 341 329 311 43 112 84 126 120 124 134 134 129 122 114 95 6 333 302 122 113 127 141 150 148 149 149 145 141 143 141 142 142 143 140 142 146 143 141 136 134 128 127 128 132 130 129 133 135 136 136 131 119 114 122 121 101 76 94 63 32 27 35
341 341 322 301 326 91 119 129 128 136 165 162 146 133 129 124 125 130 305 36 105 135 142 152 152 149 148 147 146 143 141 143 147 145 142 143 144 139 131 127 129 133 136 138 135 133 139 144 149 151 147 139 130 125 128 121 112 89 72 70 62 50 43
333 330 320 297 332 2 191 171 153 127 77 41 46 80 99 118 124 137 157 170 121 152 156 159 158 155 152 144 140 141 142 144 141 137 137 139 139 137 135 138 142 139 140 140 143 148 152 158 155 146 139 137 136 133 127 118 118 113 112 128 111 76 45
334 330 317 300 321 348 272 209 191 144 125 95 112 132 130 118 117 137 166 161 153 173 162 167 161 154 146 143 143 140 136 137 132 131 133 134 140 142 142 143 143 134 144 148 147 149 144 148 141 151 131 122 116 111 108 110 104 98 90 96 150 152 153
332 317 305 297 298 285 254 240 221 164 147 148 137 161 137 136 142 152 158 158 164 164 163 158 154 149 146 143 142 137 136 133 135 135 136 141 142 139 135 129 129 140 157 152 151 146 141 138 136 140 131 111 106 96 99 99 77 54 51 26 351 39 150
327 307 296 289 278 264 264 266 268 174 151 170 144 257 152 138 139 142 152 159 158 156 157 154 155 152 154 148 139 139 139 135 131 130 100 62 46 53 58 65 99 97 52 25 11 31 128 121 97 107 110 117 108 106 109 108 93 68 44 26 356 7 38
317 298 291 280 263 256 260 274 281 245 184 207 164 214 169 142 138 147 154 157 151 154 160 156 159 160 150 143 142 138 139 139 143 129 111 92 72 58 42 19 5 29 59 40 25 12 7 9 95 75 71 84 84 104 123 100 87 73 29 11 345 332 19
291 284 282 281 272 270 268 269 278 265 219 220 187 201 194 160 148 149 152 150 152 159 158 159 161 154 153 151 151 150 153 146 132 121 120 111 104 96 75 55 48 29 32 51 32 38 33 41 49 25 64 81 53 22 37 88 85 89 22 285 274 316 354
277 273 277 287 285 265 255 267 262 261 236 219 206 205 201 186 164 155 149 151 155 162 158 166 163 162 156 157 159 150 147 142 133 128 117 115 112 106 104 85 56 45 41 46 47 42 43 46 41 35 24 59 102 62 54 75 87 78 41 27 14 8 354
281 280 280 285 284 276 272 244 243 243 240 215 208 210 214 202 183 160 149 149 150 154 155 148 150 178 162 162 145 141 143 141 132 129 125 122 120 119 116 109 98 64 42 43 49 51 54 57 57 50 51 43 55 103 101 79 78 74 65 49 44 39 37